This is the latest recevied weather packets stored in our database for station/object G4ZMG. If no packets are shown the sender has not sent any weather packets the latest 10 day(s).
| Time | Temp. | Humidity | Pressure | Rain* | Wind** | Luminosity | Snow |
|---|---|---|---|---|---|---|---|
| 1777458039 | 15.56° C | 48% | 1023.8 hPa | 0 mm | - | 724 W/m² | - |
| 1777457426 | 15.56° C | 49% | 1023.8 hPa | 0 mm | - | 712 W/m² | - |
| 1777456847 | 16.11° C | 51% | 1023.8 hPa | 0 mm | - | 694 W/m² | - |
| 1777456241 | 15.56° C | 51% | 1023.8 hPa | 0 mm | - | 679 W/m² | - |
| 1777455634 | 15.56° C | 54% | 1023.9 hPa | 0 mm | - | 657 W/m² | - |
| 1777455021 | 15° C | 58% | 1023.8 hPa | 0 mm | - | 640 W/m² | - |
| 1777454407 | 13.89° C | 61% | 1023.9 hPa | 0 mm | - | 619 W/m² | - |
| 1777453848 | 13.33° C | 62% | 1024 hPa | 0 mm | - | 601 W/m² | - |
| 1777453246 | 13.33° C | 64% | 1023.9 hPa | 0 mm | - | 580 W/m² | - |
| 1777452004 | 12.78° C | 65% | 1024.2 hPa | 0 mm | - | 533 W/m² | - |
| 1777451405 | 12.78° C | 67% | 1024.2 hPa | 0 mm | - | 510 W/m² | - |
| 1777450805 | 12.22° C | 69% | 1024.1 hPa | 0 mm | - | 483 W/m² | - |
| 1777450204 | 11.67° C | 70% | 1024.2 hPa | 0 mm | - | 459 W/m² | - |
| 1777449609 | 11.67° C | 72% | 1024.4 hPa | 0 mm | - | 434 W/m² | - |
| 1777448405 | 10.56° C | 75% | 1024.5 hPa | 0 mm | - | 380 W/m² | - |
| 1777447804 | 10° C | 78% | 1024.6 hPa | 0 mm | - | 353 W/m² | - |
| 1777447205 | 9.44° C | 80% | 1024.4 hPa | 0 mm | - | 323 W/m² | - |
| 1777446605 | 8.89° C | 81% | 1024.4 hPa | 0 mm | - | 297 W/m² | - |
| 1777446005 | 8.33° C | 82% | 1024.5 hPa | 0 mm | - | 265 W/m² | - |
| 1777444803 | 7.78° C | 84% | 1024.6 hPa | 0 mm | - | 165 W/m² | - |
| 1777444205 | 7.22° C | 85% | 1024.5 hPa | 0 mm | - | 139 W/m² | - |
| 1777443604 | 6.67° C | 86% | 1024.5 hPa | 0 mm | - | 137 W/m² | - |
| 1777443004 | 6.67° C | 86% | 1024.4 hPa | 0 mm | - | 116 W/m² | - |
| 1777442407 | 6.11° C | 87% | 1024.4 hPa | 0 mm | - | 98 W/m² | - |
| 1777441804 | 6.11° C | 87% | 1024.5 hPa | 0 mm | - | 95 W/m² | - |
* Rain latest hour (hover to see other rain measurements)
** Current wind speed in m/s (hover to see current wind gust speed)